Flag for Norway Weather past 2 weeks in Nesodden, Norway

Now
52 °F

Rain. Fog.


Feels Like: 44 °F
Forecast: 52 / 56 °F
Wind: 37 mph from South

Location: Oslo / Fornebu

Current Time: Oct 23, 2014 at 8:18:01 PM

Latest Report: Oct 23, 2014 at 7:50 PM


Visibility: 2 mi

Pressure: 29.53 "Hg

Humidity: 100%

Dew point: 52 °F

Location of NesoddenLocation

Historic Weather in Nesodden — Graph

°F

Nesodden temperature yesterday

Maximum temperature yesterday: 52 °F (at 11:20 PM)
Minimum temperature yesterday: 45 °F (at 1:50 AM)
Average temperature yesterday: 47 °F

Past Weeks' High & Low Weather Summary

 TemperatureHumidityPressure
High57 °F (Oct 11, 2:20 PM)100% (Oct 10, 1:20 AM)30.01 "Hg (Oct 10, 1:20 AM)
Low45 °F (Oct 21, 9:20 PM)54% (Oct 17, 4:20 AM)29.03 "Hg (Oct 21, 1:20 PM)
Average51 °F83%29.61 "Hg
* Reported Oct 8 6:20 PM — Oct 23 6:50 PM, Nesodden, Weather by CustomWeather, © 2014

Note: Actual official high and low records may vary slightly from our data, if they occured in-between our weather recording intervals... More about our weather records

Advertising

Nesodden weather history for previous 24 hours

 ConditionsComfort  
Time TempWeatherWind HumidityBarometerVisibility
6:50 PM
Oct 23
54 °FPassing clouds.35 mph94%29.56 "HgN/A
6:20 PM54 °FPartly sunny.36 mph94%29.56 "HgN/A
5:50 PM54 °FPassing clouds.31 mph94%29.56 "HgN/A
5:20 PM54 °FPartly sunny.30 mph94%29.59 "HgN/A
4:50 PM54 °FPartly sunny.31 mph88%29.59 "HgN/A
4:20 PM52 °FBroken clouds.33 mph94%29.59 "HgN/A
3:50 PM52 °FBroken clouds.32 mph88%29.59 "HgN/A
3:20 PM52 °FPassing clouds.31 mph94%29.59 "HgN/A
2:50 PM52 °FBroken clouds.31 mph94%29.59 "HgN/A
2:20 PM52 °FBroken clouds.31 mph94%29.59 "HgN/A
1:50 PM52 °FPartly sunny.32 mph94%29.59 "HgN/A
1:20 PM52 °FPartly sunny.32 mph94%29.59 "HgN/A
12:50 PM52 °FBroken clouds.31 mph94%29.59 "HgN/A
12:20 PM52 °FCool.30 mph94%29.59 "HgN/A
11:50 AM52 °FPassing clouds.31 mph88%29.59 "HgN/A
11:20 AM52 °FPassing clouds.33 mph88%29.56 "HgN/A
10:50 AM52 °FPassing clouds.35 mph88%29.56 "HgN/A
10:20 AM52 °FPassing clouds.35 mph94%29.56 "HgN/A
9:50 AM52 °FScattered clouds.33 mph94%29.56 "HgN/A
9:20 AM52 °FBroken clouds.35 mph94%29.56 "HgN/A
8:50 AM52 °FPassing clouds.35 mph94%29.53 "HgN/A
8:20 AM52 °FPartly cloudy.35 mph88%29.53 "HgN/A
7:50 AM52 °FOvercast.37 mph88%29.53 "HgN/A
7:20 AM52 °FPassing clouds.39 mph94%29.53 "HgN/A
6:50 AM52 °FSprinkles. Fog.38 mph100%29.53 "Hg2 mi
6:20 AM52 °FPartly cloudy.40 mph100%29.53 "HgN/A
5:50 AM52 °FSprinkles. Passing clouds.40 mph100%29.53 "Hg4 mi
5:20 AM52 °FLight rain. Fog.40 mph100%29.53 "Hg2 mi
4:50 AM52 °FPassing clouds.40 mph100%29.53 "HgN/A
4:20 AM52 °FPassing clouds.43 mph100%29.53 "HgN/A
3:50 AM52 °FPassing clouds.39 mph100%29.53 "HgN/A
3:20 AM52 °FLight rain. Passing clouds.43 mph100%29.53 "Hg3 mi
2:50 AM52 °FLight rain. Passing clouds.41 mph100%29.56 "Hg3 mi
2:20 AM52 °FSprinkles. Fog.39 mph100%29.56 "Hg2 mi
1:50 AM52 °FSprinkles. Fog.41 mph100%29.56 "Hg1 mi
1:20 AM52 °FLight rain. Passing clouds.43 mph100%29.56 "Hg4 mi
12:50 AM52 °FLight rain. Fog.45 mph100%29.56 "Hg2 mi
12:20 AM52 °FLight rain. Fog.43 mph100%29.59 "Hg2 mi
11:50 PM
Oct 22
52 °FLight rain. Passing clouds.45 mph100%29.59 "Hg3 mi
11:20 PM52 °FLight rain. Fog.45 mph94%29.59 "Hg2 mi
10:50 PM50 °FLight rain. Fog.46 mph100%29.59 "Hg2 mi
10:20 PM50 °FLight rain. Fog.45 mph94%29.62 "Hg1 mi
9:50 PM48 °FLight rain. Fog.47 mph100%29.62 "Hg2 mi
9:20 PM48 °FLight rain. Passing clouds.46 mph94%29.65 "Hg3 mi
8:50 PM48 °FLight rain. Fog.46 mph94%29.65 "Hg2 mi
8:20 PM48 °FLight rain. Overcast.46 mph94%29.68 "Hg4 mi
Weather by CustomWeather, © 2014

See weather overviewHow to use our weather pages